Location: �couen
(49.0206°N, 2.3831°E)
Time: 20:37:08
(UTC+00:00)

Cosmos 2227 - Pass Details

Date: 31 May 2022
Orbit: 833 x 863 km, 71.0° (Epoch: 25 June)

Event Time Altitude Azimuth Distance (km) Brightness Sun altitude
Rises 21:33:29 0° 323° (NW) 3,448 9.4 -12.9°
Reaches altitude 10° 21:36:17 10° 312° (NW) 2,509 7.9 -13.1°
Maximum altitude 21:41:00 27° 257° (WSW) 1,603 5.8 -13.5°
Drops below altitude 10° 21:45:43 10° 201° (SSW) 2,496 6.3 -13.9°
Enters shadow 21:46:24 - 198° (SSW) 2,711 6.4 -14.0°
